TimeCST,TemperatureF,Dew PointF,Humidity,Sea Level PressureIn,VisibilityMPH,Wind Direction,Wind SpeedMPH,Gust SpeedMPH,PrecipitationIn,Events,Conditions,WindDirDegrees,DateUTC
12:53 AM,46.9,33.1,59,29.68,10.0,SSE,11.5,-,N/A,,Clear,160,2013-11-20 06:53:00
1:53 AM,48.0,33.1,56,29.68,10.0,South,13.8,21.9,N/A,,Clear,180,2013-11-20 07:53:00
2:53 AM,46.9,32.0,56,29.69,10.0,South,13.8,-,N/A,,Clear,180,2013-11-20 08:53:00
3:53 AM,46.0,30.9,56,29.70,10.0,South,10.4,-,N/A,,Clear,170,2013-11-20 09:53:00
4:53 AM,46.0,30.9,56,29.70,10.0,South,9.2,-,N/A,,Mostly Cloudy,170,2013-11-20 10:53:00
5:53 AM,45.0,30.0,56,29.70,10.0,South,11.5,-,N/A,,Overcast,170,2013-11-20 11:53:00
6:53 AM,44.1,30.9,60,29.73,10.0,South,8.1,-,N/A,,Partly Cloudy,170,2013-11-20 12:53:00
7:53 AM,42.1,30.0,62,29.74,10.0,South,6.9,-,N/A,,Partly Cloudy,170,2013-11-20 13:53:00
8:53 AM,42.1,30.9,65,29.76,10.0,SSE,4.6,-,N/A,,Clear,150,2013-11-20 14:53:00
9:53 AM,43.0,30.9,62,29.78,10.0,Calm,Calm,-,N/A,,Clear,0,2013-11-20 15:53:00
10:53 AM,45.0,33.1,63,29.80,10.0,NNW,11.5,-,N/A,,Clear,340,2013-11-20 16:53:00
11:53 AM,46.9,33.1,59,29.80,10.0,North,6.9,-,N/A,,Clear,360,2013-11-20 17:53:00
12:53 PM,48.9,34.0,56,29.78,10.0,NNW,6.9,-,N/A,,Clear,340,2013-11-20 18:53:00
1:53 PM,51.1,34.0,52,29.77,10.0,NNE,9.2,-,N/A,,Clear,20,2013-11-20 19:53:00
2:53 PM,52.0,34.0,50,29.78,10.0,North,6.9,-,N/A,,Clear,10,2013-11-20 20:53:00
3:53 PM,50.0,34.0,54,29.80,10.0,NNW,11.5,-,N/A,,Clear,340,2013-11-20 21:53:00
4:53 PM,43.0,30.9,62,29.85,10.0,NNW,16.1,-,N/A,,Clear,330,2013-11-20 22:53:00
5:53 PM,37.9,28.9,70,29.88,10.0,NNW,15.0,-,N/A,,Clear,340,2013-11-20 23:53:00
6:53 PM,37.0,28.0,70,29.92,10.0,North,-9999.0,-,N/A,,Unknown,0,2013-11-21 00:53:00
7:53 PM,35.1,27.0,72,29.96,10.0,NNW,20.7,-,N/A,,Clear,340,2013-11-21 01:53:00
8:53 PM,33.1,26.1,75,30.03,10.0,North,26.5,33.4,N/A,,Clear,350,2013-11-21 02:53:00
9:53 PM,30.9,25.0,79,30.09,10.0,North,18.4,31.1,N/A,,Clear,350,2013-11-21 03:53:00
10:14 PM,30.2,24.8,80,30.07,10.0,North,21.9,32.2,N/A,,Mostly Cloudy,350,2013-11-21 04:14:00
10:53 PM,30.0,21.9,72,30.13,10.0,North,25.3,33.4,N/A,,Overcast,350,2013-11-21 04:53:00
11:49 PM,28.4,19.4,69,30.12,10.0,North,21.9,31.1,N/A,,Overcast,350,2013-11-21 05:49:00
11:53 PM,28.0,19.9,72,30.17,10.0,North,20.7,-,N/A,,Overcast,350,2013-11-21 05:53:00